Regional Weather Roundup
Issued by NWS Kansas City/Pleasant Hill, MO

Home | Current Version | Previous Version | Text Only | Print | Product List | Glossary On
Versions: 1 2 3 4 5 6 7 8 9 10 11 12 13 14 15 16 17 18 19 20 21 22 23 24 25 26 27 28 29 30 31 32 33 34 35 36 37 38 39 40 41 42 43 44 45 46 47 48 49 50
000
ASUS43 KEAX 211411
RWREAX

WEATHER ROUNDUP FOR EASTERN KANSAS AND NORTHWEST MISSOURI
NATIONAL WEATHER SERVICE KANSAS CITY/PLEASANT HILL MO
900 AM CDT TUE OCT 21 2014

KSZ040-057-103>105-MOZ028-029-037-043-211500-
...KANSAS CITY METROPOLITAN AREA...

CITY           SKY/WX    TMP DP  RH WIND       PRES   REMARKS
K.C. INTL      SUNNY     54  46  74 CALM      30.13R
K.C. DOWNTOWN  SUNNY     50  47  89 CALM      30.14R
LEES SUMMIT    SUNNY     51  46  83 CALM      30.14R
OLATHE - IXD   SUNNY     51  47  86 CALM      30.14R
OLATHE - OJC   SUNNY     54  47  77 CALM      30.13R
LAWRENCE       SUNNY     44  41  89 CALM      30.14R

$$

MOZ001>008-011>017-020>025-030>033-038>040-044>046-053-054-211500-
...NORTHERN AND CENTRAL MISSOURI...

CITY           SKY/WX    TMP DP  RH WIND       PRES   REMARKS
ST. JOSEPH     FAIR      43  42  97 CALM      30.14R FOG
MOSBY          SUNNY     45  43  93 CALM      30.14R
WHITEMAN AFB   SUNNY     51  46  83 N2        30.13R
CLINTON        SUNNY     48  48 100 CALM      30.14R
SEDALIA        SUNNY     53  45  74 NE3       30.15R
WARSAW         NOT AVBL
MARSHALL       SUNNY     52  48  87 CALM      30.15S
CHILLICOTHE      N/A     47  45  93 CALM      30.15R
MOBERLY        SUNNY     52  46  82 NE3       30.15R
KIRKSVILLE     SUNNY     50  45  83 NE6       30.15R

$$

MOZ041-047>049-056>058-063>065-088>090-097-211500-
...EASTERN AND SOUTHERN MISSOURI...

CITY           SKY/WX    TMP DP  RH WIND       PRES   REMARKS
ST. LOUIS INTL SUNNY     55  46  71 N3        30.12R
SPIRIT OF STL  SUNNY     51  47  86 SW3       30.12R
COLUMBIA       SUNNY     54  47  77 N5        30.13R
JEFFERSON CITY SUNNY     48  44  86 CALM      30.14R
MEXICO         SUNNY     54  50  87 CALM      30.13R
ROLLA          SUNNY     53  46  77 NW5       30.12R
LEBANON        SUNNY     57  48  72 W3        30.14R
OSAGE BEACH    SUNNY     46  43  87 CALM      30.14R
SPRINGFIELD    SUNNY     55  51  86 CALM      30.13R
BRANSON        SUNNY     55  55 100 CALM      30.15R
NEVADA         SUNNY     54  54 100 CALM      30.15R
JOPLIN         SUNNY     55  55 100 CALM      30.14R FOG
WEST PLAINS    SUNNY     55  49  80 CALM      30.13R

$$

IAZ060-094-KSZ022-034>040-054-083-096-NEZ052-066-093-211500-
...KANSAS...SOUTHEAST NEBRASKA AND IOWA...

CITY           SKY/WX    TMP DP  RH WIND       PRES   REMARKS
TOPEKA         SUNNY     47  45  93 CALM      30.13S FOG
MANHATTAN      SUNNY     46  44  93 CALM      30.13R
EMPORIA        SUNNY     50  47  89 E3        30.12R
CHANUTE        SUNNY     54  52  93 E3        30.13R
WICHITA        PTSUNNY   60  55  83 E7        30.10R
OMAHA          SUNNY     45  39  79 CALM      30.14R
LINCOLN        SUNNY     43  38  82 CALM      30.13R
FALLS CITY     SUNNY     43  40  89 CALM      30.13R
LAMONI         SUNNY     50  42  74 CALM      30.13R
DES MOINES     SUNNY     48  41  76 E5        30.15R

$$



USA.gov is the U.S. government's official web portal to all federal, state and local government web resources and services.